Location: Sobotiste
(48.7170°N, 17.4000°E)
Time: 18:00:39
(UTC+02:00)

ITUPSAT 1 - Pass Details

Date: 17 March 2026
Orbit: 686 x 698 km, 98.4° (Epoch: 18 April)

Event Time Altitude Azimuth Distance (km) Brightness Sun altitude
Rises 00:10:56 0° 8° (N) 3,074 ? -42.7°
Reaches altitude 10° 00:13:18 10° 1° (N) 2,151 ? -42.6°
Enters shadow 00:13:18 10° 1° (N) 2,150 ? -42.6°
